DW8266 Weather Reports


Display with metric or nautical units.
time (UTC)temp
F
wind
direction
speed
MPH
gust
MPH
rain 1hr
in
rain 24hr
in
rain mn
in
humidity
%
barometer
mb
20260904173103 81 65 0.0 0.0 0.00 0.00 0.00 90 1015.1
20260904171604 81 65 1.0 4.0 0.00 0.00 0.00 89 1015.5
20260904170059 81 170 0.0 1.0 0.00 0.00 0.00 89 1015.1
20260904170001 81 170 0.0 1.0 0.00 0.00 0.00 89 1015.1
20260904164559 81 170 0.0 0.0 0.00 0.00 0.00 88 1015.4
20260904163100 82 170 0.0 1.0 0.00 0.00 0.00 88 1015.3
20260904160109 83 208 1.0 3.0 0.00 0.00 0.00 87 1014.9
20260904160001 82 211 0.0 2.0 0.00 0.00 0.00 87 1014.9
20260904153003 87 235 4.0 8.0 0.00 0.00 0.00 82 1014.4
20260904151607 89 169 1.0 4.0 0.00 0.00 0.00 84 1014.6
20260904144600 89 148 1.0 3.0 0.00 0.00 0.00 85 1014.4
20260904143103 88 76 0.0 2.0 0.00 0.00 0.00 87 1014.4
20260904141600 87 74 0.0 3.0 0.00 0.00 0.00 88 1014.4
20260904140104 86 74 0.0 1.0 0.00 0.00 0.00 89 1014.3
20260904140001 86 74 0.0 0.0 0.00 0.00 0.00 89 1014.3
20260904134608 85 74 0.0 3.0 0.00 0.00 0.00 90 1014.4
20260904133104 85 63 0.0 4.0 0.00 0.00 0.00 90 1014.1
20260904131559 83 103 0.0 3.0 0.00 0.00 0.00 91 1014.0
20260904130103 82 121 0.0 2.0 0.00 0.00 0.00 92 1013.8
20260904124600 82 167 0.0 0.0 0.00 0.00 0.00 92 1013.7
20260904123100 82 167 0.0 0.0 0.00 0.00 0.00 92 1013.4
20260904123002 82 167 0.0 0.0 0.00 0.00 0.00 92 1013.5
20260904121502 81 167 0.0 0.0 0.00 0.00 0.00 92 1013.4
20260904120110 81 167 0.0 0.0 0.00 0.00 0.00 92 1013.2
20260904120002 82 167 0.0 0.0 0.00 0.00 0.00 92 1013.2
20260904114600 82 167 0.0 0.0 0.00 0.00 0.00 92 1013.0
20260904113100 82 167 0.0 0.0 0.00 0.00 0.00 92 1013.2
20260904111559 82 167 0.0 0.0 0.00 0.00 0.00 92 1013.3
20260904110100 82 167 0.0 0.0 0.00 0.00 0.00 92 1013.1
20260904104600 82 167 0.0 0.0 0.00 0.00 0.00 92 1013.0
20260904103104 82 167 0.0 0.0 0.00 0.00 0.00 92 1012.9
20260904101559 82 167 0.0 2.0 0.00 0.00 0.00 92 1012.6
20260904100059 82 167 0.0 0.0 0.00 0.00 0.00 92 1012.5
20260904100002 82 167 0.0 0.0 0.00 0.00 0.00 92 1012.5
20260904094607 82 167 0.0 0.0 0.00 0.00 0.00 92 1012.5
20260904093106 82 167 0.0 0.0 0.00 0.00 0.00 92 1012.5
20260904091555 82 168 0.0 0.0 0.00 0.00 0.00 92 1012.5
20260904090055 82 168 0.0 0.0 0.00 0.00 0.00 92 1012.5
20260904084556 82 168 0.0 0.0 0.00 0.00 0.00 92 1012.7
20260904083055 82 168 0.0 0.0 0.00 0.00 0.00 92 1012.7
20260904081554 82 168 0.0 0.0 0.00 0.00 0.00 92 1012.7
20260904074556 82 168 0.0 0.0 0.00 0.00 0.00 92 1012.8
20260904073059 82 168 0.0 0.0 0.00 0.00 0.00 92 1012.8
20260904071559 82 168 0.0 2.0 0.00 0.00 0.00 92 1012.8
20260904064556 82 168 0.0 2.0 0.00 0.00 0.00 92 1013.2
20260904063057 82 168 0.0 1.0 0.00 0.00 0.00 92 1013.2
20260904061602 82 168 0.0 2.0 0.00 0.00 0.00 92 1013.0
20260904060054 82 168 0.0 3.0 0.00 0.00 0.00 92 1013.0
20260904054600 82 152 0.0 1.0 0.00 0.00 0.00 92 1013.0
20260904053136 82 152 0.0 2.0 0.00 0.00 0.00 92 1013.0
20260904051600 82 152 0.0 2.0 0.00 0.00 0.00 92 1013.0
20260904050101 82 155 0.0 1.0 0.00 0.00 0.00 92 1013.0
20260904044558 82 155 0.0 2.0 0.00 0.00 0.00 92 1013.1
20260904043059 82 155 0.0 1.0 0.00 0.00 0.00 92 1013.0
20260904041605 82 155 0.0 1.0 0.00 0.00 0.00 92 1013.0
20260904040100 82 155 0.0 3.0 0.00 0.00 0.00 92 1013.0
20260904034603 82 155 0.0 0.0 0.00 0.00 0.00 92 1013.1
20260904033114 82 155 0.0 0.0 0.00 0.00 0.00 92 1013.1
20260904031558 82 155 0.0 1.0 0.00 0.00 0.00 92 1013.0
20260904030100 82 155 0.0 3.0 0.00 0.00 0.00 92 1013.0
20260904030002 82 155 0.0 3.0 0.00 0.00 0.00 92 1013.0
20260904024557 82 117 0.0 2.0 0.00 0.00 0.00 92 1012.9
20260904023057 82 98 0.0 1.0 0.00 0.00 0.00 91 1012.6
20260904021559 82 93 0.0 1.0 0.00 0.00 0.00 91 1012.5
20260904020118 82 69 0.0 2.0 0.00 0.00 0.00 91 1012.6
20260904020002 82 69 0.0 2.0 0.00 0.00 0.00 91 1012.6
20260904014647 82 70 0.0 0.0 0.00 0.00 0.00 91 1012.4
20260904014502 82 70 0.0 0.0 0.00 0.00 0.00 91 1012.3
20260904013004 82 70 0.0 1.0 0.00 0.00 0.00 91 1012.2
20260904011607 82 70 0.0 0.0 0.00 0.00 0.00 91 1012.2
20260904010104 82 70 0.0 2.0 0.00 0.00 0.00 91 1012.0
20260904004602 82 70 0.0 2.0 0.00 0.00 0.00 91 1011.9
20260904003112 82 71 0.0 3.0 0.00 0.00 0.00 91 1012.0
20260904001600 82 71 0.0 3.0 0.00 0.00 0.00 91 1012.1
20260904000101 81 71 0.0 3.0 0.00 0.00 0.00 91 1012.3
20260903234613 81 61 0.0 3.0 0.00 0.00 0.00 91 1012.3
20260903233100 81 70 0.0 4.0 0.00 0.00 0.00 91 1012.1
20260903231600 81 78 0.0 4.0 0.00 0.00 0.00 91 1012.2
20260903230107 80 66 1.0 3.0 0.00 0.00 0.00 91 1012.2
20260903230003 80 70 1.0 3.0 0.00 0.00 0.00 91 1012.2
20260903224600 80 61 0.0 3.0 0.00 0.00 0.00 92 1012.6
20260903223100 80 64 0.0 4.0 0.00 0.00 0.00 92 1012.4
20260903221559 80 91 0.0 4.0 0.00 0.00 0.00 92 1012.3
20260903220107 80 69 1.0 3.0 0.00 0.00 0.00 92 1012.6
20260903220002 80 70 1.0 3.0 0.00 0.00 0.00 92 1012.6
20260903214559 80 78 0.0 5.0 0.00 0.00 0.00 93 1012.9
20260903213100 79 5 0.0 2.0 0.00 0.00 0.00 92 1013.0
20260903211600 79 283 0.0 1.0 0.00 0.00 0.00 92 1013.4
20260903204602 79 265 0.0 0.0 0.00 0.00 0.00 92 1013.4
20260903203059 78 265 0.0 0.0 0.00 0.00 0.00 92 1013.5
20260903201600 78 271 1.0 4.0 0.00 0.00 0.00 91 1013.8
20260903200057 79 298 0.0 4.0 0.00 0.00 0.00 90 1013.5
20260903194604 80 312 1.0 4.0 0.00 0.00 0.00 90 1013.8
20260903193118 80 317 0.0 1.0 0.00 0.00 0.00 89 1014.2
20260903191605 82 302 2.0 5.0 0.00 0.00 0.00 87 1014.5
20260903184559 87 57 2.0 9.0 0.00 0.00 0.00 77 1013.8
20260903183106 89 51 3.0 11.0 0.00 0.00 0.00 75 1013.5
20260903181607 91 92 0.0 1.0 0.00 0.00 0.00 75 1013.5
20260903180107 91 107 0.0 1.0 0.00 0.00 0.00 76 1013.5
20260903174559 91 178 0.0 4.0 0.00 0.00 0.00 76 1013.8